Davenport, IA

9:08 AM CDT on March 25, 2017 (GMT -0500)
Davenport Municipal

Weather History for KDVN - August, 2013

Change the Weather History Date:

Thursday, August 29, 2013

  Actual Average Record
Temperature  
Mean Temperature 81 °F 69 °F  
Max Temperature 89 °F 80 °F 95 °F (1948)
Min Temperature 72 °F 58 °F 50 °F (2004)
Degree Days  
Heating Degree Days 0 1  
Month to date heating degree days 7 3  
Since 1 June heating degree days 43 31  
Since 1 July heating degree days 19 7  
Cooling Degree Days 16 5  
Month to date cooling degree days 208 195  
Year to date cooling degree days 740 696  
Since 1 June cooling degree days 645 635  
Growing Degree Days 30 (Base 50)    
Moisture  
Dew Point 70 °F    
Average Humidity 75    
Maximum Humidity 90    
Minimum Humidity 59    
Precipitation  
Precipitation 0.00 in 0.12 in 2.05 in (1951)
Month to date precipitation 1.01 4.30  
Year to date precipitation 28.39 25.50  
Snow  
Snow 0.00 in - - ()
Month to date snowfall 0.0  
Since 1 June snowfall 0.0  
Since 1 July snowfall 0.0  
Snow Depth 0.00 in    
Sea Level Pressure  
Sea Level Pressure 30.02 in    
Wind  
Wind Speed 7 mph (ESE)    
Max Wind Speed 12 mph    
Max Gust Speed 15 mph    
Visibility 8 miles    
Events      
T = Trace of Precipitation, MM = Missing Value Source: NWS Daily Summary

Daily Weather History Graph

Daily Weather History Graph

Search for Another Location

Airport or City:

Trip Planner

Search our weather history database for the weather conditions in past years. The results will help you decide how hot, cold, wet, or windy it might be!

Date:

Astronomy

Aug. 29, 2013 Rise Set
Actual Time 6:25 AM CDT 7:40 PM CDT
Civil Twilight 5:56 AM CDT 8:08 PM CDT
Nautical Twilight 5:22 AM CDT 8:42 PM CDT
Astronomical Twilight 4:46 AM CDT 9:18 PM CDT
Moon 12:14 AM CDT (8/29) 3:11 PM CDT (8/29)
Length of Visible Light 14h 11m
Length of Day
13h 14m
Last Quarter, 38% of the Moon is Illuminated
Aug 29
Last Quarter
Sep 5
New
Sep 12
First Quarter
Sep 19
Full
Sep 26
Last Quarter

Hourly Weather History & Observations

Time (CDT) Temp. Heat Index Dew Point Humidity Pressure Visibility Wind Dir Wind Speed Gust Speed Precip Events Conditions
12:52 AM 75.9 °F - 71.1 °F 85% 30.01 in 10.0 mi East 8.1 mph - N/A   Scattered Clouds
1:52 AM 75.9 °F - 72.0 °F 87% 30.01 in 7.0 mi East 8.1 mph - N/A   Scattered Clouds
2:52 AM 75.0 °F - 70.0 °F 84% 30.02 in 8.0 mi ESE 6.9 mph - N/A   Mostly Cloudy
3:52 AM 73.9 °F - 69.1 °F 85% 30.02 in 8.0 mi SE 6.9 mph - N/A   Partly Cloudy
4:52 AM 73.0 °F - 69.1 °F 87% 30.03 in 7.0 mi ESE 3.5 mph - N/A   Scattered Clouds
4:59 AM 73.4 °F - 69.8 °F 88% 30.04 in 6.0 mi SE 3.5 mph - N/A   Mostly Cloudy
5:34 AM 73.4 °F - 66.2 °F 78% 30.04 in 10.0 mi ESE 6.9 mph - N/A   Scattered Clouds
5:52 AM 73.0 °F - 66.9 °F 81% 30.02 in 10.0 mi SE 5.8 mph - N/A   Clear
6:11 AM 73.4 °F - 69.8 °F 88% 30.05 in 7.0 mi East 4.6 mph - N/A   Mostly Cloudy
6:29 AM 73.4 °F - 68.0 °F 83% 30.05 in 7.0 mi ESE 3.5 mph - N/A   Mostly Cloudy
6:52 AM 72.0 °F - 68.0 °F 87% 30.04 in 6.0 mi East 5.8 mph - N/A   Scattered Clouds
7:52 AM 73.0 °F - 68.0 °F 84% 30.05 in 6.0 mi East 6.9 mph - N/A   Haze
8:16 AM 73.4 °F - 68.0 °F 83% 30.07 in 6.0 mi East 5.8 mph - N/A   Haze
8:52 AM 75.0 °F - 68.0 °F 79% 30.06 in 7.0 mi East 8.1 mph - N/A   Clear
9:52 AM 75.9 °F - 68.0 °F 76% 30.07 in 5.0 mi East 8.1 mph - N/A   Haze
10:52 AM 78.1 °F - 69.1 °F 74% 30.07 in 6.0 mi SE 4.6 mph - N/A   Haze
11:52 AM 79.0 °F - 69.1 °F 72% 30.06 in 8.0 mi ESE 6.9 mph - N/A   Overcast
12:52 PM 82.0 °F 85.9 °F 70.0 °F 67% 30.05 in 10.0 mi East 10.4 mph - N/A   Mostly Cloudy
1:16 PM 82.4 °F 86.3 °F 69.8 °F 66% 30.06 in 10.0 mi ESE 9.2 mph - N/A   Scattered Clouds
1:52 PM 84.9 °F 90.1 °F 71.1 °F 63% 30.03 in 10.0 mi ESE 6.9 mph - N/A   Clear
2:52 PM 87.1 °F 93.6 °F 72.0 °F 61% 30.01 in 10.0 mi East 8.1 mph - N/A   Clear
3:52 PM 88.0 °F 95.6 °F 73.0 °F 61% 30.00 in 9.0 mi SE 6.9 mph - N/A   Clear
4:52 PM 88.0 °F 94.7 °F 72.0 °F 59% 29.98 in 9.0 mi ESE 8.1 mph - N/A   Clear
5:52 PM 86.0 °F 93.0 °F 73.0 °F 65% 29.97 in 9.0 mi SE 6.9 mph - N/A   Clear
6:52 PM 84.0 °F 90.2 °F 73.0 °F 69% 29.97 in 9.0 mi SE 6.9 mph - N/A   Clear
7:52 PM 80.1 °F 83.8 °F 72.0 °F 76% 29.97 in 9.0 mi ESE 6.9 mph - N/A   Clear
8:52 PM 79.0 °F - 71.1 °F 77% 29.97 in 10.0 mi SE 5.8 mph - N/A   Clear
9:52 PM 77.0 °F - 70.0 °F 79% 29.96 in 10.0 mi SSE 6.9 mph - N/A   Clear
10:52 PM 75.9 °F - 70.0 °F 82% 29.96 in 10.0 mi SSE 5.8 mph - N/A   Clear
11:52 PM 73.9 °F - 69.1 °F 85% 29.97 in 10.0 mi ESE 4.6 mph - N/A   Clear